Weather History for Huron, SD

Change the Weather History Date:

Saturday, January 19, 2013

  Actual Average Record
Temperature  
Mean Temperature 23 °F 17 °F  
Max Temperature 40 °F 27 °F 64 °F (1900)
Min Temperature 5 °F 6 °F -35 °F (1970)
Degree Days  
Heating Degree Days 42 48  
Month to date heating degree days 848 927  
Since 1 July heating degree days 3922 4047  
Cooling Degree Days 0 0  
Month to date cooling degree days 0 0  
Year to date cooling degree days 0 0  
Moisture  
Dew Point 17 °F    
Average Humidity 70    
Maximum Humidity 85    
Minimum Humidity 54    
Precipitation  
Precipitation 0.00 in 0.02 in 0.50 in (1926)
Month to date precipitation 0.03 0.31  
Year to date precipitation 0.03 0.31  
Snow  
Snow 0.00 in 0.30 in 6.50 in (1926)
Month to date snowfall 1.0 4.5  
Since 1 July snowfall 15.1 20.8  
Snow Depth 2.00 in    
Sea Level Pressure  
Sea Level Pressure 30.13 in    
Wind  
Wind Speed 16 mph (NW)    
Max Wind Speed 37 mph    
Max Gust Speed 44 mph    
Visibility 10 miles    
Events      
T = Trace of Precipitation, MM = Missing Value Source: NWS Daily Summary

Daily Weather History Graph

Daily Weather History Graph

Search for Another Location

Airport:

Trip Planner

Search our weather history database for the weather conditions in past years. The results will help you decide how hot, cold, wet, or windy it might be!

Date:

Astronomy

Jan. 19, 2013 Rise Set
Actual Time 8:02 AM CST 5:25 PM CST
Civil Twilight 7:30 AM CST 5:57 PM CST
Nautical Twilight 6:55 AM CST 6:32 PM CST
Astronomical Twilight 6:20 AM CST 7:07 PM CST
Moon 11:54 AM CST (1/19) 1:35 AM CST (1/19)
Length of Visible Light 10h 26m
Length of Day
9h 22m
First Quarter, 57% of the Moon is Illuminated
Jan 19
First Quarter
Jan 26
Full
Feb 3
Last Quarter
Feb 10
New
Feb 17
First Quarter

Hourly Weather History & Observations

Time (CST) Temp. Windchill Dew Point Humidity Pressure Visibility Wind Dir Wind Speed Gust Speed Precip Events Conditions
12:55 AM 37.0 °F 31.0 °F 28.9 °F 73% 29.79 in 10.0 mi West 8.1 mph - N/A   Clear
1:55 AM 36.0 °F 30.3 °F 28.9 °F 76% 29.79 in 10.0 mi West 6.9 mph - N/A   Clear
2:55 AM 34.0 °F 29.8 °F 28.0 °F 79% 29.81 in 10.0 mi WSW 4.6 mph - N/A   Clear
3:55 AM 33.1 °F 27.7 °F 27.0 °F 78% 29.81 in 10.0 mi SW 5.8 mph - N/A   Clear
4:55 AM 32.0 °F 24.8 °F 26.1 °F 79% 29.82 in 10.0 mi West 8.1 mph - N/A   Clear
5:55 AM 33.1 °F 26.1 °F 26.1 °F 75% 29.86 in 10.0 mi West 8.1 mph - N/A   Partly Cloudy
6:55 AM 30.9 °F 23.5 °F 26.1 °F 82% 29.88 in 10.0 mi West 8.1 mph - N/A   Clear
7:55 AM 32.0 °F 23.6 °F 28.0 °F 85% 29.91 in 10.0 mi NW 10.4 mph - N/A   Clear
8:55 AM 35.1 °F 27.9 °F 30.0 °F 82% 29.94 in 10.0 mi NW 9.2 mph - N/A   Partly Cloudy
9:55 AM 37.0 °F 29.8 °F 30.9 °F 79% 29.97 in 10.0 mi WNW 10.4 mph - N/A   Clear
10:55 AM 39.0 °F 30.6 °F 30.9 °F 73% 30.01 in 10.0 mi WNW 15.0 mph - N/A   Clear
11:55 AM 39.0 °F 29.0 °F 30.9 °F 73% 30.03 in 10.0 mi NW 20.7 mph 27.6 mph N/A   Mostly Cloudy
12:18 PM 39.2 °F 31.2 °F 30.2 °F 70% 30.00 in 10.0 mi NW 13.8 mph - N/A   Overcast
12:55 PM 37.9 °F 27.1 °F 30.9 °F 76% 30.06 in 10.0 mi NW 23.0 mph 28.8 mph N/A   Overcast
1:55 PM 30.0 °F 14.9 °F 21.9 °F 72% 30.12 in 10.0 mi North 29.9 mph 38.0 mph N/A   Overcast
2:40 PM 26.6 °F 11.4 °F 19.4 °F 74% 30.12 in 10.0 mi North 25.3 mph 32.2 mph N/A   Overcast
2:55 PM 26.1 °F 10.7 °F 16.0 °F 66% 30.19 in 10.0 mi North 25.3 mph 38.0 mph N/A   Overcast
3:55 PM 21.0 °F 4.6 °F 12.0 °F 68% 30.25 in 10.0 mi NNW 23.0 mph 33.4 mph N/A   Mostly Cloudy
4:14 PM 19.4 °F 2.5 °F 12.2 °F 74% 30.21 in 10.0 mi NNW 23.0 mph 34.5 mph N/A   Scattered Clouds
4:41 PM 19.4 °F 1.4 °F 10.4 °F 68% 30.23 in 10.0 mi NNW 26.5 mph 35.7 mph N/A   Mostly Cloudy
4:50 PM 19.4 °F 0.5 °F 8.6 °F 63% 30.24 in 10.0 mi NNW 29.9 mph 36.8 mph N/A   Scattered Clouds
4:55 PM 19.0 °F 0.0 °F 9.0 °F 65% 30.29 in 10.0 mi NNW 29.9 mph 36.8 mph N/A   Scattered Clouds
5:55 PM 14.0 °F -5.5 °F 5.0 °F 67% 30.36 in 10.0 mi NNW 25.3 mph 31.1 mph N/A   Clear
6:46 PM 12.2 °F -8.6 °F 3.2 °F 67% 30.33 in 10.0 mi NNW 27.6 mph 33.4 mph N/A   Mostly Cloudy
6:55 PM 10.9 °F -9.2 °F 1.9 °F 67% 30.40 in 10.0 mi NNW 24.2 mph 31.1 mph N/A   Mostly Cloudy
7:07 PM 10.4 °F -7.7 °F 1.4 °F 67% 30.34 in 10.0 mi North 18.4 mph 25.3 mph N/A   Scattered Clouds
7:55 PM 9.0 °F -9.5 °F -0.0 °F 67% 30.43 in 10.0 mi NNW 18.4 mph 25.3 mph N/A   Clear
8:55 PM 8.1 °F -9.0 °F -0.9 °F 67% 30.43 in 10.0 mi NNW 15.0 mph - N/A   Clear
9:55 PM 6.1 °F -10.9 °F -2.0 °F 69% 30.43 in 10.0 mi NNW 13.8 mph - N/A   Clear
10:55 PM 6.1 °F -9.5 °F -2.0 °F 69% 30.44 in 10.0 mi North 11.5 mph - N/A   Clear
11:55 PM 5.0 °F -9.1 °F -2.9 °F 70% 30.43 in 10.0 mi North 9.2 mph - N/A   Clear